Wind_Speed
16 16 15 15 15 14 14 14 14 14 14 14 14 13 13 12 10 9 7 6 6 5 5 4 4 4 5 6 7 8 10 11 13 13 13 12 12 11 11 11 11 11 11 10 10 10 9 9 8 8 8 8 8 9 9 10 11 12 13 14 15 16 17 18 18 19 19 20 20 20 20 21 21 22 22 23 25 26 27 29 30 32 33 35 36 37
18 18 17 17 16 16 16 16 16 16 16 16 15 14 13 11 10 8 7 7 7 7 7 7 7 7 8 9 9 9 10 11 12 14 14 14 14 13 13 13 12 12 12 12 11 11 10 10 10 9 9 9 9 9 9 10 10 11 12 13 14 15 16 17 18 18 19 20 20 20 21 21 21 22 22 23 24 25 26 28 29 31 32 33 35 36
20 19 19 18 17 16 16 17 18 18 18 17 16 15 14 13 12 11 11 11 11 11 11 11 11 12 12 12 11 11 10 11 12 13 14 15 15 15 15 14 14 13 13 13 13 12 12 11 11 11 10 10 10 10 10 10 10 11 12 12 13 14 15 16 17 18 18 19 20 20 21 21 22 22 22 23 24 25 26 27 28 30 31 32 34 35
21 21 20 19 18 17 17 17 17 18 17 17 16 16 16 16 15 15 15 15 15 15 14 14 14 15 15 14 13 11 11 11 12 13 15 16 16 16 16 15 15 14 14 14 14 14 13 13 13 12 12 12 12 12 12 12 12 12 12 13 13 14 14 15 16 17 17 18 19 20 20 21 21 22 22 23 24 24 25 27 28 29 31 32 33 34
22 22 22 21 20 19 17 17 17 17 16 16 16 16 16 17 17 17 17 17 17 17 16 16 16 16 16 15 13 12 11 11 12 13 15 16 16 16 15 15 15 15 15 15 15 15 15 15 15 15 15 15 15 15 14 14 14 14 14 14 14 15 15 16 16 17 17 18 19 19 20 21 21 22 22 23 24 24 25 26 27 29 30 32 33 34
23 23 22 21 21 20 19 18 17 16 15 16 16 16 17 17 17 17 18 18 18 17 17 16 16 16 15 14 13 12 12 13 13 14 14 15 15 15 15 15 15 15 16 16 16 16 17 17 17 18 18 18 17 17 17 17 16 16 16 16 16 16 17 17 17 18 18 18 19 20 20 21 21 22 22 23 23 24 25 26 27 28 30 31 33 34
22 22 22 22 21 21 20 19 18 17 16 16 17 17 17 17 17 17 17 17 17 17 17 17 17 17 16 15 14 13 13 14 13 13 13 13 14 14 15 15 16 17 17 17 17 17 17 18 18 19 19 19 19 19 18 18 17 17 17 17 18 18 19 19 19 19 19 20 20 20 21 21 22 22 22 23 23 24 24 25 26 28 29 31 32 34
21 21 22 22 22 22 22 21 20 19 18 18 18 18 18 18 18 18 18 18 18 18 18 17 17 17 16 15 14 13 14 14 13 12 12 13 14 14 14 15 16 17 17 17 16 15 15 15 16 17 17 18 19 19 19 18 18 18 18 19 20 21 22 22 22 22 21 21 21 22 22 22 22 23 23 23 23 24 24 25 26 27 28 30 31 33
19 20 21 22 22 22 22 22 22 21 20 20 20 19 19 20 20 20 20 20 20 19 18 17 17 16 15 14 14 14 15 15 15 15 15 16 16 16 15 16 16 16 16 14 13 12 12 12 13 14 15 16 17 18 19 19 20 21 22 23 24 24 24 24 24 24 24 24 23 23 23 24 24 24 24 24 24 24 25 25 25 26 27 29 30 32
19 19 20 21 21 22 22 22 22 21 21 21 22 22 22 22 22 23 22 22 21 20 19 17 16 15 15 15 16 16 17 17 18 18 18 18 17 17 17 17 16 14 13 12 10 9 9 9 10 12 14 16 17 19 20 22 23 24 26 26 27 27 26 26 26 25 25 25 25 25 25 25 25 25 25 25 25 25 25 25 26 26 27 28 29 31
19 19 19 20 20 21 22 23 23 23 22 21 22 23 24 24 24 23 22 22 21 20 18 16 15 15 15 17 18 19 18 19 19 19 19 18 18 18 16 15 13 12 12 11 10 9 8 8 9 10 12 15 18 20 22 25 26 28 29 29 29 28 28 27 26 25 25 25 25 26 26 26 27 27 27 27 27 27 26 26 26 26 27 27 28 30
17 17 18 18 19 19 21 23 25 25 23 22 21 22 22 22 22 22 21 20 19 18 17 16 16 16 17 18 19 19 19 20 20 20 19 19 18 16 13 12 12 12 12 12 11 10 10 9 10 11 13 15 18 21 24 27 28 29 29 29 29 28 28 27 26 25 25 24 25 25 26 26 27 28 28 28 28 28 28 27 27 27 27 27 28 29
16 16 16 17 17 19 20 22 24 24 22 20 20 20 21 20 20 21 21 20 19 18 17 17 16 16 17 18 18 18 19 20 20 20 20 18 16 13 12 12 13 13 14 14 14 13 13 12 12 13 15 17 20 23 26 27 28 28 28 27 27 27 27 26 26 25 24 24 24 24 25 26 27 28 28 29 29 29 29 29 28 28 28 28 28 29
17 16 16 16 16 18 20 21 21 20 19 19 19 20 21 21 22 21 21 20 19 18 17 16 16 16 16 17 17 18 18 19 20 20 18 15 13 13 13 14 15 15 15 16 16 16 16 16 16 18 20 22 24 26 26 26 25 24 24 24 24 24 25 25 25 24 24 23 23 23 24 25 26 27 28 29 30 30 30 30 29 29 28 28 28 29
17 15 14 14 15 16 16 16 16 16 16 16 17 19 20 21 22 22 20 18 18 17 16 15 15 15 15 16 17 18 18 18 17 16 15 14 14 14 15 16 16 17 17 18 18 18 18 19 21 23 25 27 27 26 25 23 22 20 20 20 21 22 23 23 23 23 23 23 22 23 23 24 25 26 27 28 29 30 30 30 30 30 29 29 29 29
18 17 15 15 15 14 13 12 12 12 12 13 14 15 16 17 18 19 19 18 16 15 14 14 14 15 15 16 17 18 17 15 14 15 15 15 16 16 16 17 18 19 19 19 19 20 21 23 26 27 28 27 25 23 21 19 18 18 18 18 19 20 21 21 22 22 22 22 22 22 22 23 23 24 26 27 28 29 30 30 30 30 30 29 29 29
17 17 17 17 17 16 13 12 12 12 12 12 12 13 13 14 15 16 16 16 15 14 13 14 14 14 14 16 18 17 15 14 14 15 16 17 18 18 18 19 20 20 20 21 22 23 25 27 27 27 25 22 19 17 16 15 15 16 17 17 18 19 19 20 20 21 22 22 22 22 22 22 22 23 24 25 26 28 29 30 30 30 30 30 30 29
13 14 14 15 16 16 13 12 11 12 13 12 12 13 13 14 14 14 14 13 13 12 12 13 13 14 15 15 17 18 17 16 16 17 18 19 20 19 19 20 21 22 23 24 25 26 26 25 23 20 18 15 13 12 12 12 13 14 15 16 17 18 18 19 20 21 22 22 23 22 22 21 21 21 22 23 24 25 27 28 29 30 30 30 30 30
11 12 13 14 14 14 12 11 11 10 11 12 12 12 12 12 12 12 11 11 11 11 12 12 13 14 16 16 18 18 18 18 19 20 21 22 22 21 20 21 22 23 25 26 26 24 22 19 16 13 11 10 9 9 10 11 12 13 15 16 17 18 19 20 21 22 22 23 23 22 21 20 20 20 20 21 22 23 25 26 27 28 29 29 30 30
8 9 11 12 12 12 11 11 10 10 10 10 11 11 11 11 11 11 10 10 10 11 12 13 13 15 16 17 18 18 19 19 19 20 21 22 22 22 22 23 24 25 25 24 21 19 16 13 10 8 7 7 8 9 11 12 14 15 16 17 18 19 20 21 21 22 22 22 22 21 20 20 19 19 19 20 21 22 24 25 26 27 28 29 29 30
8 9 10 10 11 11 11 11 10 10 9 9 9 10 11 11 11 11 11 11 11 11 12 13 14 15 16 17 18 19 18 18 18 19 21 22 24 24 23 22 22 21 20 19 17 14 12 10 8 7 8 9 11 13 14 15 15 16 16 17 18 19 19 20 20 21 21 20 20 20 20 20 20 19 20 20 21 22 23 25 26 27 27 28 29 29
9 10 11 11 11 12 13 13 13 12 12 11 11 12 12 12 13 13 13 12 12 12 13 14 15 16 17 18 18 18 17 16 17 18 21 23 24 24 22 19 17 17 16 15 14 12 11 11 11 11 12 13 15 16 16 16 15 15 16 16 17 17 18 18 19 19 20 20 20 20 20 20 20 20 20 20 21 22 23 24 25 26 27 27 28 29
12 12 13 13 13 14 14 15 15 15 15 15 15 16 16 15 16 16 16 15 15 15 16 17 17 17 17 17 17 17 16 16 16 17 18 20 21 20 18 15 14 14 14 14 14 14 14 15 15 16 16 17 17 16 15 14 13 14 15 16 16 17 17 18 18 19 20 21 21 22 22 22 21 21 21 21 21 22 22 23 24 25 26 27 28 28
14 14 15 15 15 15 16 16 16 16 16 17 17 18 18 18 18 18 17 17 17 17 18 18 18 18 18 17 17 16 15 14 13 13 13 15 16 16 14 13 13 14 15 16 16 17 18 19 19 19 18 18 17 15 13 11 12 13 15 16 17 17 18 18 19 20 21 22 23 23 24 24 23 23 22 22 21 21 21 22 22 24 25 26 27 28
16 16 16 16 16 16 17 17 17 17 17 18 18 18 18 18 18 18 17 17 17 18 18 18 18 18 17 16 16 15 13 11 9 8 10 13 14 14 13 13 14 16 19 20 20 20 20 20 20 19 18 17 15 12 11 11 13 15 16 17 18 18 19 20 20 21 22 23 24 25 25 25 25 24 22 21 21 20 20 20 20 21 23 24 26 27
15 15 15 15 16 16 17 18 18 18 19 19 19 19 19 19 18 18 18 17 17 17 17 16 16 16 15 14 13 12 11 8 7 8 10 13 15 16 16 16 17 19 22 22 21 19 18 18 18 18 18 17 14 13 12 14 15 17 18 18 19 19 20 20 21 22 23 24 25 26 26 26 24 21 19 18 19 19 20 19 19 20 21 22 24 26
13 13 13 13 14 15 17 18 18 19 19 19 19 19 19 19 19 18 18 18 17 15 14 13 13 12 12 11 10 9 9 8 9 10 12 14 16 18 19 19 19 20 20 19 17 16 15 16 18 19 19 18 17 16 16 17 19 20 20 20 20 20 20 21 21 22 23 24 25 26 26 23 20 18 17 17 18 19 20 20 20 20 20 21 23 24
11 11 11 11 12 14 15 16 16 17 17 18 18 18 18 18 17 16 16 16 14 13 12 12 11 10 10 10 10 10 10 10 11 12 13 15 17 19 19 18 16 15 15 16 16 16 16 17 19 20 21 20 19 18 19 21 22 23 23 23 22 21 21 21 22 22 23 24 26 27 26 24 21 19 19 19 19 20 21 21 20 20 20 21 22 23
11 10 10 10 11 11 11 11 12 13 13 13 13 14 14 14 13 13 13 13 12 11 12 12 12 11 11 11 12 11 11 12 12 12 12 14 15 16 16 14 12 12 13 16 17 18 19 19 20 20 20 20 19 19 20 21 23 24 24 24 24 24 23 23 23 24 24 25 27 28 29 27 25 24 22 21 21 21 22 22 21 21 20 20 21 22
9 9 9 8 8 7 6 6 6 8 9 9 9 9 10 10 10 10 10 10 10 11 12 12 13 12 12 12 12 12 11 10 10 11 11 12 13 13 13 12 12 13 13 15 18 20 21 21 20 19 18 18 19 20 21 22 23 23 24 24 25 25 25 25 25 26 26 26 28 29 30 30 29 28 26 24 23 23 23 23 23 22 21 20 21 22
5 5 5 5 5 4 4 4 5 6 7 8 8 9 9 10 10 11 10 10 11 12 13 14 14 14 14 13 12 10 10 10 11 11 12 12 14 15 15 14 15 14 14 15 17 20 21 22 21 19 18 19 21 23 24 25 25 26 26 25 24 24 23 23 24 25 26 27 28 29 30 31 31 30 29 27 26 26 25 25 25 23 22 21 20 21
3 3 3 3 4 4 4 5 6 7 8 9 10 11 11 11 12 12 12 12 12 13 14 15 16 16 15 15 14 14 14 15 14 14 14 15 16 17 17 18 18 18 17 17 17 19 20 22 23 23 23 24 25 27 27 28 28 28 28 27 26 25 23 22 21 22 23 24 26 28 29 30 31 31 30 30 29 28 28 27 27 25 23 22 21 21
1 1 2 3 3 4 5 6 7 8 10 11 11 12 12 12 13 13 13 13 14 14 16 16 17 18 18 18 18 19 20 19 18 17 17 18 19 20 21 21 22 22 22 21 21 22 23 25 27 27 28 28 29 29 29 29 29 28 27 27 27 26 25 23 22 21 20 20 22 24 26 27 28 29 30 30 30 30 29 29 28 27 25 24 23 23
2 2 3 3 3 4 5 6 7 9 11 11 12 12 12 13 13 14 14 15 16 16 17 18 19 19 19 20 20 21 22 22 21 20 20 21 22 23 24 24 24 25 25 25 25 26 27 28 29 30 30 31 31 31 30 29 29 28 27 26 25 25 24 24 23 22 21 21 20 20 21 23 24 26 27 28 28 29 29 28 28 27 26 25 24 25
3 4 4 4 4 4 5 6 8 9 10 11 11 11 11 12 13 14 15 16 16 17 18 19 19 20 20 21 21 22 22 22 21 21 21 22 23 24 25 26 26 26 26 27 27 28 28 29 30 30 31 31 32 31 30 28 27 26 25 24 24 24 24 24 24 24 24 23 22 21 21 21 21 22 23 24 25 26 26 26 27 27 26 26 25 25
5 5 5 5 5 5 6 7 8 10 10 10 10 9 9 10 11 12 13 15 16 17 18 18 19 20 20 21 21 22 22 22 21 21 21 22 23 24 25 26 26 26 26 27 27 28 28 29 29 29 29 30 31 30 29 26 25 24 24 24 24 24 24 24 24 24 24 24 24 23 22 21 21 21 22 22 23 23 24 25 25 26 26 26 25 25
5 6 6 6 7 7 7 8 9 10 10 10 10 10 9 9 10 11 12 13 14 15 16 17 18 19 19 20 21 22 23 23 22 21 21 21 22 22 23 24 25 24 24 25 25 26 26 27 27 27 27 27 27 27 27 26 25 25 26 26 25 25 25 24 23 23 23 24 24 24 23 22 22 22 22 22 22 23 23 23 24 24 25 25 25 25
6 6 7 7 8 8 9 10 10 10 10 10 10 10 10 10 10 10 11 12 13 14 15 16 17 18 19 20 21 21 22 22 22 22 21 21 21 21 22 22 23 23 22 22 22 23 23 23 24 24 24 24 23 24 24 24 25 26 27 27 26 26 25 24 23 23 23 24 24 24 24 23 23 22 22 22 22 22 22 22 22 22 23 23 24 24
6 7 7 8 9 9 10 10 10 10 10 10 10 11 11 11 11 11 12 12 13 14 15 16 16 17 18 19 19 20 20 20 21 20 20 19 19 19 20 20 20 20 20 19 19 19 20 21 22 22 22 22 23 22 22 22 23 25 26 27 27 26 25 24 23 23 23 24 24 24 23 22 22 21 21 21 20 20 21 21 21 21 21 21 22 22
7 7 8 9 9 9 10 10 10 10 10 11 11 11 11 12 12 12 12 13 13 14 14 15 16 16 17 17 17 18 18 18 18 18 18 17 17 17 17 17 17 18 17 17 17 18 18 19 20 21 21 22 23 23 23 22 22 22 24 26 28 28 26 25 24 24 24 24 24 23 23 22 22 21 21 21 20 20 20 21 21 21 21 22 22 23
8 8 9 9 9 9 9 10 10 10 11 11 11 12 12 12 12 12 12 12 13 13 13 14 15 15 16 16 16 15 15 16 16 15 15 15 14 14 14 15 15 15 15 16 16 17 18 19 19 20 21 22 22 23 23 23 22 21 22 25 27 27 26 25 25 24 24 23 23 22 23 23 23 22 22 22 21 21 21 21 22 22 22 22 22 23
8 9 9 9 9 9 9 10 10 10 11 11 11 12 12 12 12 12 12 13 13 13 13 13 14 14 14 14 14 14 14 14 14 13 13 13 13 13 13 13 13 14 14 15 17 17 17 18 19 20 21 21 22 23 24 23 22 21 22 23 24 25 25 24 23 22 21 22 23 23 23 24 24 24 23 22 21 21 20 21 21 22 23 23 23 23
8 9 9 9 9 9 9 10 10 11 11 11 11 11 12 12 12 12 12 13 13 13 13 13 13 13 13 13 13 13 13 12 12 12 12 12 12 12 12 12 12 13 13 15 16 18 18 18 19 20 20 20 21 23 24 24 23 22 22 22 22 24 26 25 24 23 23 23 24 24 24 24 24 23 22 21 21 20 20 20 20 21 22 22 23 23
8 8 8 8 8 9 9 10 10 10 11 11 11 11 12 12 12 12 12 13 13 13 13 13 13 13 12 13 13 13 13 12 11 11 10 10 10 11 11 12 12 12 13 14 15 17 18 19 19 19 19 20 21 22 23 24 23 23 23 22 22 23 25 26 25 25 25 25 24 24 23 22 21 21 21 21 21 20 20 20 21 21 20 20 21 22
7 8 8 8 8 9 9 10 10 10 11 11 11 11 12 12 12 12 12 13 13 13 13 13 13 13 13 13 13 13 13 12 11 11 10 10 10 10 11 11 12 13 13 14 15 16 18 19 20 20 20 20 22 23 24 25 25 26 26 25 24 24 24 24 24 23 23 23 22 21 19 19 19 20 21 22 21 21 20 21 21 22 21 20 20 20
7 7 8 8 8 9 9 10 10 11 11 11 11 12 12 12 12 12 13 13 13 13 13 13 13 13 13 14 14 14 14 13 13 12 11 11 10 10 11 11 12 13 14 15 16 17 19 20 20 21 22 22 23 24 25 25 26 26 26 25 24 23 23 22 21 20 20 20 20 19 17 17 17 19 22 23 22 22 21 21 21 22 22 21 21 21
8 8 8 9 9 9 10 10 10 11 11 11 12 12 12 12 12 12 13 13 13 13 13 13 13 13 13 14 14 14 14 14 14 14 13 13 12 11 11 11 12 13 14 16 17 18 20 21 21 21 22 23 24 25 25 25 24 24 24 23 22 22 22 21 20 18 18 19 19 19 18 18 18 20 21 22 22 22 22 21 21 21 21 21 22 22
9 9 10 10 10 10 11 11 11 11 11 12 12 12 12 12 12 12 13 13 13 13 14 14 13 13 13 13 13 13 13 14 14 15 14 14 13 13 13 12 13 13 14 15 16 18 18 19 19 20 20 21 23 24 24 23 22 21 21 20 20 20 21 21 21 20 20 20 21 20 20 21 21 22 23 23 24 23 22 21 20 20 20 20 21 21
10 10 11 11 11 12 12 12 12 12 12 13 13 13 13 13 13 13 13 13 14 14 14 14 13 14 14 14 13 13 13 14 14 15 15 14 14 14 14 14 14 15 15 16 16 17 17 17 18 17 17 18 19 21 22 21 20 19 19 19 19 20 22 22 22 22 22 22 22 22 22 23 23 23 24 26 27 27 25 23 21 19 19 18 19 20
10 11 11 12 12 12 12 13 13 13 13 13 14 14 14 14 14 14 14 14 14 14 13 13 14 14 14 15 14 14 14 14 14 15 15 14 14 14 15 15 15 16 17 17 17 17 17 18 18 17 16 15 16 17 19 19 19 18 18 19 19 20 21 22 22 21 21 22 22 22 22 23 23 23 24 26 27 28 28 26 24 22 19 18 18 19
11 11 12 12 12 13 13 13 13 14 14 14 14 14 14 15 15 15 14 14 14 13 13 13 14 14 15 15 15 14 14 14 14 15 15 14 14 14 15 15 16 17 18 18 18 18 18 19 19 19 17 15 13 13 14 16 17 18 19 19 19 20 20 21 21 20 20 20 21 21 22 22 22 22 22 24 25 27 28 28 27 25 22 21 20 20
Wind_Direction
239 240 241 241 242 242 244 247 249 250 253 255 258 263 267 269 269 269 269 267 266 268 271 273 266 257 257 268 280 291 298 301 302 300 298 297 296 295 294 294 293 293 293 293 292 290 288 286 283 282 281 281 281 282 282 281 279 277 275 274 272 271 269 269 268 268 268 268 269 270 272 273 274 274 274 273 271 269 267 265 263 263 263 263 263 263
238 240 243 245 248 250 251 254 257 259 260 260 260 259 258 254 251 247 244 241 241 244 249 251 253 255 259 266 276 285 293 297 298 298 297 297 296 296 294 292 290 289 289 289 289 288 287 285 284 283 283 283 285 286 286 286 285 284 282 280 278 276 274 273 272 271 270 270 269 270 270 271 272 273 273 273 272 270 268 266 264 262 262 262 262 262
238 240 242 245 248 252 255 258 260 262 263 261 257 252 245 239 234 232 232 234 238 244 249 254 259 265 271 277 283 288 292 294 294 294 295 296 297 297 295 292 289 286 285 285 285 286 285 285 284 284 285 286 287 289 290 291 291 290 289 287 284 282 280 279 277 276 275 274 273 272 272 272 272 272 273 273 272 272 270 268 265 263 261 260 260 260
239 240 242 244 247 250 254 259 261 262 260 257 252 247 241 235 233 235 238 242 247 252 257 261 266 272 279 286 291 293 292 291 290 290 292 294 295 297 296 294 290 286 283 282 281 281 282 282 283 284 286 288 290 292 294 296 296 296 296 294 292 290 288 286 284 282 280 279 277 276 275 274 273 273 273 273 273 272 271 270 267 265 262 260 259 258
238 240 242 244 246 249 251 256 259 260 258 254 249 245 241 238 239 242 246 251 254 257 259 262 266 273 280 288 292 293 290 287 285 286 288 290 293 294 295 295 293 290 286 282 280 279 278 279 280 282 284 287 290 292 295 297 298 299 300 300 300 298 297 294 291 288 285 283 281 279 278 277 276 275 274 273 273 272 272 271 269 267 264 261 259 257
237 238 240 243 245 247 249 252 256 259 257 253 249 246 243 243 244 247 251 254 256 257 258 260 265 271 278 286 290 290 286 285 284 283 284 287 289 291 293 296 298 298 294 290 285 282 280 280 280 281 283 286 288 291 293 296 297 299 301 303 304 305 304 302 299 295 291 287 284 282 280 279 278 277 276 275 274 273 273 272 270 269 267 264 261 258
234 234 236 239 241 244 246 249 254 257 258 255 251 248 246 246 247 249 251 253 255 256 257 260 265 271 277 284 287 286 283 283 282 280 281 283 284 286 289 294 299 301 301 298 294 291 288 286 285 285 285 286 288 289 291 293 295 297 300 303 306 308 309 308 306 302 298 293 289 285 282 280 279 278 277 276 275 274 274 273 272 271 269 266 264 261
232 231 232 234 237 240 243 246 251 256 259 257 253 248 246 246 247 248 250 252 253 254 256 260 265 271 277 281 282 280 278 278 277 276 277 276 275 277 283 290 296 299 300 301 300 299 298 296 293 291 289 288 287 288 290 291 294 296 299 303 306 308 309 309 308 306 303 299 294 290 285 282 279 278 276 275 275 274 274 274 273 272 271 269 266 264
234 232 230 231 233 237 241 244 247 253 259 260 256 250 245 244 246 249 251 251 252 253 256 261 266 271 273 274 273 272 272 272 272 272 271 269 269 273 280 288 293 295 298 301 304 306 307 306 303 300 296 292 290 290 291 293 295 298 301 303 305 307 307 308 307 306 305 302 298 294 290 286 282 279 277 275 274 274 273 273 273 273 272 271 269 266
240 239 237 233 233 235 239 243 245 250 255 257 256 252 249 248 249 250 250 249 250 253 258 262 265 265 267 270 271 271 270 269 269 268 267 267 270 277 285 291 294 296 297 301 304 306 306 306 307 305 302 299 298 297 298 300 301 303 304 305 305 306 306 306 305 305 304 302 300 297 293 289 286 282 279 277 275 274 273 273 272 272 272 272 271 269
244 246 246 243 239 237 239 242 244 246 249 251 250 250 251 253 254 252 249 248 249 252 255 257 258 260 265 272 277 277 274 271 269 268 267 269 275 283 290 294 294 292 290 289 289 289 289 289 291 295 298 300 302 303 305 306 307 306 306 306 306 305 305 304 304 303 302 300 298 296 293 291 288 285 282 279 276 275 273 272 272 272 272 272 271 270
243 248 250 250 248 246 245 246 246 246 246 246 245 246 248 252 254 253 249 247 247 247 247 249 254 261 270 277 280 280 276 271 269 270 273 278 283 288 290 288 281 276 272 269 268 267 267 268 272 280 288 294 300 304 306 307 307 307 307 306 306 305 305 304 303 302 301 299 297 294 292 290 288 285 283 281 278 276 274 273 272 272 271 271 271 270
238 242 247 249 250 251 251 251 251 250 248 246 244 244 244 247 248 248 247 244 242 240 241 244 251 261 272 279 281 277 271 270 272 277 281 284 286 283 277 271 267 265 262 259 257 256 258 260 266 274 283 291 297 300 303 304 305 305 305 305 305 305 304 304 303 302 301 299 296 293 291 288 287 285 283 281 280 278 276 275 274 273 272 271 270 270
236 238 241 244 247 249 250 251 252 250 247 245 244 244 246 247 247 245 241 236 234 234 236 242 249 257 267 274 275 271 268 272 278 283 284 281 275 268 263 261 261 262 262 259 257 258 260 264 271 278 285 291 295 298 299 299 300 300 300 301 301 302 303 303 303 303 302 299 296 293 291 288 286 285 283 282 281 279 278 277 275 274 273 272 271 270
236 235 234 234 236 237 238 239 239 238 237 237 239 243 247 248 246 241 232 227 228 231 235 242 251 258 264 267 267 266 267 274 280 281 277 269 263 261 260 259 259 261 262 261 261 263 268 273 280 286 291 294 296 297 297 295 294 293 293 293 295 297 299 301 302 303 302 300 297 295 292 289 287 286 284 283 282 280 279 278 277 276 275 274 272 271
236 234 231 229 227 227 228 226 221 216 218 223 229 232 233 233 233 229 224 224 228 233 238 248 257 263 267 269 267 265 266 271 275 275 271 263 259 259 259 260 260 261 263 264 267 272 278 283 288 292 295 297 298 297 296 293 290 287 286 286 289 293 296 299 300 301 300 299 298 296 294 291 289 287 286 284 283 282 281 280 279 278 277 275 274 272
235 233 231 231 230 230 235 231 222 216 216 217 219 217 213 213 215 217 219 224 230 236 245 255 260 263 265 265 264 263 264 267 271 273 271 265 261 260 260 261 262 264 267 270 275 281 287 291 294 296 298 299 300 300 298 294 290 287 285 286 290 293 296 297 298 297 297 297 297 297 295 294 292 290 289 287 285 284 283 281 280 279 278 277 275 274
224 225 225 227 229 232 236 230 222 218 219 216 213 210 208 208 208 210 214 222 230 238 246 256 259 260 261 261 262 264 266 269 272 274 273 269 265 264 264 265 267 270 274 279 285 289 293 296 298 300 302 305 307 307 305 300 295 291 291 292 293 294 294 294 294 293 294 295 296 297 296 295 294 293 292 290 288 286 284 282 281 280 279 278 276 275
216 217 219 221 223 225 228 225 219 213 212 212 211 209 208 209 209 209 213 220 229 239 250 257 260 261 263 262 264 268 271 274 276 276 275 273 272 271 272 274 276 280 284 288 292 296 298 300 302 305 309 314 315 314 308 302 297 294 291 290 289 289 289 290 291 292 293 294 296 297 297 296 296 295 293 291 289 287 284 282 281 280 279 278 277 276
230 229 227 225 224 226 231 231 228 223 219 217 214 214 218 219 220 220 224 229 235 242 250 255 259 263 265 265 268 272 277 280 280 279 278 278 278 280 282 285 287 289 292 295 298 300 301 302 303 305 309 308 306 301 296 292 289 287 286 285 285 286 287 290 292 294 295 296 297 297 297 297 296 295 294 292 289 286 284 282 280 279 278 278 278 277
262 259 251 244 242 245 249 251 249 245 242 237 234 234 236 237 239 241 244 246 249 253 257 260 263 266 269 272 276 279 284 286 284 282 283 284 286 288 291 294 296 297 297 298 299 300 298 294 289 286 285 286 286 285 283 282 282 284 285 286 288 289 290 291 292 293 293 293 292 291 291 291 292 292 291 290 289 286 284 282 281 280 279 278 278 278
277 275 271 267 264 262 262 263 265 266 265 264 262 261 259 259 260 261 262 264 266 269 272 271 270 271 274 278 283 286 286 286 284 283 286 289 290 293 297 300 301 299 297 295 293 291 286 280 274 272 273 275 276 277 278 279 283 285 288 289 289 290 290 289 289 289 288 286 285 284 283 284 285 286 287 288 288 287 286 284 283 281 280 279 278 277
279 278 280 281 279 277 275 275 274 273 272 271 269 268 269 270 271 272 274 276 278 278 280 278 277 276 277 280 281 282 281 281 282 284 288 290 293 296 301 302 299 293 287 284 282 281 279 277 275 274 274 274 275 276 278 281 284 286 285 284 284 285 286 287 287 286 286 285 285 284 284 285 286 287 288 289 289 289 289 288 287 285 283 281 279 277
277 277 279 279 279 279 278 277 275 273 271 270 268 269 270 271 272 274 276 277 278 277 277 276 276 275 274 274 275 277 278 281 284 288 290 289 291 293 295 294 288 281 277 277 279 281 282 281 280 279 277 276 275 275 275 277 277 277 277 278 279 280 281 282 282 283 284 285 285 286 286 288 289 290 290 290 291 291 292 292 291 289 287 284 281 279
273 272 271 271 271 271 271 271 270 269 268 266 265 265 267 268 270 272 273 274 274 273 273 273 273 272 272 271 273 276 279 282 284 283 280 279 280 280 279 277 275 275 276 280 284 285 285 285 283 281 278 276 273 270 268 269 270 272 272 272 272 272 273 274 276 278 280 282 283 284 286 287 287 287 288 288 288 289 290 292 293 294 292 289 286 282
272 269 267 265 264 263 263 264 265 265 265 265 264 264 264 265 266 267 268 269 269 269 269 270 271 271 271 273 275 277 277 273 261 252 257 265 269 270 270 271 274 278 282 286 289 290 289 287 285 282 279 276 271 266 264 267 270 270 269 267 266 266 267 269 271 274 277 279 281 282 284 284 284 284 286 287 287 287 287 290 293 295 296 295 292 288
270 267 264 260 257 256 255 257 258 260 261 263 264 265 264 264 264 265 265 265 264 263 264 264 265 266 268 270 271 270 267 255 243 241 250 259 265 269 272 276 281 286 289 292 293 293 291 288 285 282 281 279 275 268 264 265 266 265 264 264 264 264 266 268 270 272 274 276 277 279 280 281 284 288 292 292 290 287 287 289 292 295 297 298 296 293
263 259 256 253 251 250 250 250 252 253 255 257 259 261 261 261 262 263 263 261 258 255 252 250 250 255 260 260 259 258 256 252 250 250 255 261 267 271 276 282 287 291 292 292 291 290 288 285 284 284 284 284 280 273 266 263 262 262 262 263 264 265 266 268 269 270 271 272 273 274 277 282 288 293 296 296 293 289 287 288 290 293 297 299 299 297
257 251 248 247 248 249 249 248 247 246 245 247 250 253 255 255 254 255 255 254 250 245 241 238 239 243 249 250 252 253 253 255 256 258 261 263 266 271 276 281 283 283 286 287 288 287 285 283 284 285 286 287 284 278 272 268 266 265 265 265 265 266 267 268 269 269 269 270 271 273 277 282 286 290 292 292 291 288 286 286 288 291 295 299 301 301
244 241 241 242 245 248 248 243 236 230 226 226 230 237 241 240 238 239 242 242 238 236 236 236 237 239 243 247 250 252 252 251 250 252 256 258 260 264 267 267 267 270 278 286 290 291 288 286 286 286 287 286 284 281 279 278 278 277 276 274 272 270 270 270 269 269 268 268 269 272 276 279 282 284 286 286 286 285 285 285 287 289 293 298 301 302
211 213 217 223 227 228 224 217 211 208 205 205 207 212 217 218 219 222 225 228 230 233 236 237 237 238 240 243 246 246 241 239 242 249 255 258 260 262 263 263 263 265 270 280 291 297 297 292 289 287 285 284 283 284 286 288 290 291 291 290 287 284 281 278 274 271 268 266 266 268 272 276 279 280 281 282 281 281 282 283 284 287 290 295 299 302
170 183 194 200 203 204 205 203 204 205 208 209 209 209 210 212 215 218 222 225 229 233 235 237 237 237 237 238 239 238 237 238 244 253 260 262 264 265 266 266 266 266 267 270 278 286 293 292 289 287 285 284 285 287 289 292 294 297 298 300 301 300 299 295 289 282 275 269 266 266 268 271 274 276 278 278 278 278 278 279 281 283 286 290 295 299
211 218 219 215 211 206 203 202 206 212 220 223 222 220 220 222 224 225 226 229 231 234 236 238 239 239 238 238 239 240 241 243 249 255 261 265 267 269 270 270 270 271 270 269 269 271 277 282 284 286 286 286 286 288 290 292 294 296 298 300 302 303 304 304 302 298 291 283 276 271 269 270 272 273 275 275 276 276 276 276 277 279 281 285 290 295
282 270 260 249 237 223 214 212 216 224 231 236 237 235 234 235 236 236 237 237 238 239 240 243 245 246 247 247 247 248 248 250 253 258 263 267 270 272 272 273 274 275 276 275 274 273 274 276 280 284 286 287 288 289 290 292 293 295 297 298 298 299 299 300 301 301 300 297 292 286 281 278 276 276 276 276 276 275 275 274 274 275 277 281 286 291
286 280 274 267 255 240 231 232 238 244 249 253 253 251 248 247 246 247 248 247 247 247 248 250 252 254 256 258 259 259 259 258 259 261 264 268 271 273 274 275 275 276 278 279 279 280 280 280 281 283 286 288 290 290 291 293 295 296 296 295 294 293 294 295 296 297 298 298 297 296 293 290 287 285 283 282 281 279 277 276 274 273 274 276 280 285
291 288 283 277 270 259 250 251 257 265 271 276 276 273 269 263 257 254 252 251 250 250 251 252 254 256 258 261 263 265 265 265 264 265 266 268 270 272 274 275 275 276 278 279 280 281 282 282 283 284 286 289 291 292 293 294 295 294 293 292 291 292 292 294 295 296 297 298 298 298 297 296 295 294 292 291 289 287 284 280 277 275 273 273 275 278
291 291 288 284 280 276 272 270 273 278 285 293 294 289 283 276 267 259 254 251 250 250 250 251 252 254 257 259 262 264 267 268 269 269 269 269 269 271 273 274 274 275 276 279 280 281 283 285 287 288 289 290 292 295 297 297 296 295 294 294 295 295 296 296 296 297 298 298 298 298 298 298 298 298 297 297 295 292 289 285 281 278 275 273 273 274
290 291 290 287 286 285 285 285 286 289 294 298 296 291 285 278 271 264 258 254 252 252 252 252 253 254 256 259 261 264 267 270 271 272 271 271 271 272 273 274 275 275 276 278 281 284 287 289 291 293 294 293 294 295 298 299 300 299 299 299 299 299 299 299 299 299 299 298 298 298 299 299 300 300 299 298 298 296 293 290 287 284 281 279 277 276
291 292 291 289 288 289 291 293 294 296 296 294 290 286 282 278 273 269 265 262 259 257 256 256 256 256 257 259 261 264 266 269 270 271 272 272 272 273 274 275 277 278 277 278 280 284 286 287 288 290 292 294 295 296 296 297 298 300 301 301 301 301 301 302 302 302 301 301 301 302 302 302 302 301 301 300 300 299 298 297 295 294 293 291 288 284
290 290 289 288 289 292 295 297 297 296 294 291 288 285 282 280 277 273 270 267 265 263 262 261 260 260 260 261 262 263 265 266 268 269 270 270 270 271 271 273 275 277 277 278 278 279 281 282 282 284 286 289 292 294 295 295 295 298 301 302 303 303 305 306 306 305 305 305 307 307 307 306 304 303 302 302 301 301 300 299 298 297 297 296 295 293
290 290 291 291 293 295 296 296 295 294 292 291 290 288 286 284 282 279 276 273 271 269 268 266 265 264 263 263 263 264 264 264 265 266 266 266 266 266 267 268 269 272 275 276 277 276 277 279 282 283 284 286 288 290 292 293 294 297 300 301 302 303 305 306 306 307 308 308 307 306 305 304 303 303 302 301 299 298 297 296 295 294 293 291 291 291
291 292 293 295 296 297 296 295 294 293 293 292 291 290 291 290 288 286 285 282 280 278 277 275 275 273 271 268 266 265 265 265 265 265 264 264 263 262 262 263 265 268 273 277 279 279 279 281 283 285 285 287 289 292 293 293 294 296 297 298 299 301 303 302 302 303 304 304 302 301 301 302 303 303 302 301 298 295 293 291 290 290 289 288 286 284
294 294 295 297 297 297 296 295 294 294 294 293 293 294 294 295 294 294 293 292 291 290 288 286 285 284 282 279 275 271 269 268 267 267 266 264 262 260 258 258 259 262 268 275 280 282 282 283 284 285 286 288 290 291 292 292 293 293 292 293 295 298 300 300 300 300 299 299 299 300 302 304 305 305 303 300 297 295 293 292 291 290 289 287 285 282
297 297 298 299 299 299 298 298 298 298 298 299 299 298 298 298 299 299 298 297 296 296 295 294 293 291 289 286 284 281 277 274 272 270 268 265 261 258 256 254 254 255 259 267 274 279 281 281 281 281 282 283 284 285 286 287 288 289 290 291 292 294 295 297 299 300 300 300 301 303 305 307 307 305 302 299 297 296 296 296 296 295 293 291 288 284
303 303 303 303 303 304 304 304 304 303 303 302 301 301 300 300 300 300 299 298 298 298 298 298 300 300 297 294 291 289 287 284 280 276 271 265 259 254 252 251 251 251 253 256 260 265 271 276 277 275 274 274 276 278 280 282 285 287 289 291 293 294 294 296 298 300 302 304 306 309 311 311 309 306 302 300 298 297 297 298 299 300 300 298 296 292
309 310 310 309 309 310 310 309 308 307 306 304 302 302 301 301 300 299 298 297 298 298 299 301 303 303 302 301 300 298 297 295 291 287 282 276 268 261 256 253 252 252 252 252 252 253 256 262 268 271 273 274 274 275 276 279 284 288 291 294 296 297 298 299 301 303 307 309 312 315 318 316 312 307 303 301 300 298 296 296 296 298 299 300 300 299
313 314 314 314 314 314 313 312 311 310 307 305 304 303 302 301 300 298 297 296 297 298 299 301 303 303 301 303 304 305 304 303 300 296 293 289 285 279 272 266 260 257 256 254 253 253 253 255 258 263 269 275 278 279 280 282 286 291 295 298 300 302 303 305 307 311 315 315 316 318 321 319 315 312 309 307 304 301 297 295 295 295 297 298 298 298
315 316 316 316 317 316 316 315 314 313 311 308 306 305 303 302 300 298 296 296 295 296 298 301 302 302 301 302 303 304 304 302 301 300 299 298 296 293 289 284 278 273 268 265 263 262 262 262 263 265 269 276 281 285 287 289 292 296 299 302 305 307 308 310 312 315 317 316 315 317 318 316 315 314 313 310 308 305 303 301 299 298 297 297 296 295
315 316 316 317 317 318 318 317 317 315 314 312 310 309 306 304 302 299 296 296 295 296 298 299 300 301 300 300 300 302 302 302 302 302 303 303 302 300 298 296 294 291 287 284 281 279 278 276 274 273 275 278 283 289 292 295 297 299 302 305 308 310 309 310 311 312 312 311 310 310 309 306 304 304 304 304 304 304 305 304 303 301 300 299 298 296
312 313 314 315 316 317 317 317 317 316 315 314 313 312 310 307 304 301 298 297 296 296 297 297 297 297 298 298 299 301 302 303 303 304 306 305 305 305 305 305 305 305 305 303 300 298 298 294 289 282 277 276 282 289 295 299 300 301 302 304 305 305 303 304 304 304 303 302 301 299 296 293 290 290 292 296 298 299 300 300 300 300 299 298 297 295
309 310 311 312 314 315 316 316 316 316 315 314 314 313 311 310 308 305 302 299 297 295 294 293 292 293 293 296 298 299 300 301 302 304 308 307 306 307 308 309 311 313 315 314 313 311 311 309 305 298 289 281 281 287 293 297 299 299 299 297 296 295 294 296 297 296 294 291 287 284 282 281 280 280 283 288 293 297 297 298 298 297 297 296 294 291
Height
1450 1451 1452 1453 1453 1453 1453 1453 1454 1454 1454 1454 1455 1455 1455 1455 1456 1456 1456 1456 1456 1456 1456 1457 1457 1457 1457 1457 1457 1457 1457 1457 1457 1457 1457 1457 1457 1457 1457 1457 1457 1457 1457 1457 1457 1457 1457 1457 1457 1457 1457 1457 1456 1456 1456 1456 1457 1457 1457 1457 1458 1458 1458 1458 1458 1458 1458 1458 1458 1458 1458 1458 1458 1458 1458 1458 1459 1459 1459 1459 1460 1460 1460 1461 1461 1462
1449 1450 1450 1451 1451 1452 1452 1452 1452 1453 1453 1453 1453 1454 1454 1454 1454 1454 1454 1455 1455 1455 1455 1456 1456 1456 1456 1456 1456 1456 1456 1456 1456 1456 1456 1456 1456 1456 1456 1456 1456 1456 1456 1456 1456 1456 1456 1456 1456 1456 1455 1455 1455 1455 1455 1456 1456 1456 1456 1456 1456 1457 1457 1457 1456 1456 1456 1456 1456 1456 1456 1456 1456 1456 1456 1456 1456 1456 1457 1457 1457 1457 1458 1458 1459 1460
1447 1448 1448 1449 1450 1450 1451 1451 1451 1451 1452 1452 1452 1452 1452 1452 1453 1453 1453 1453 1453 1454 1454 1454 1454 1455 1455 1455 1455 1455 1455 1455 1455 1455 1455 1454 1455 1455 1455 1455 1455 1455 1455 1455 1455 1455 1455 1455 1454 1454 1454 1454 1454 1454 1454 1454 1455 1455 1455 1456 1456 1456 1456 1455 1455 1455 1455 1455 1454 1454 1454 1454 1454 1454 1454 1454 1454 1455 1455 1455 1455 1455 1456 1456 1456 1457
1446 1446 1446 1447 1448 1449 1449 1450 1450 1450 1451 1451 1451 1451 1451 1451 1451 1451 1451 1452 1452 1452 1452 1453 1453 1453 1453 1454 1454 1454 1454 1454 1454 1453 1453 1453 1453 1453 1454 1454 1454 1454 1454 1454 1454 1454 1453 1453 1453 1452 1452 1452 1453 1453 1453 1453 1454 1454 1454 1455 1454 1454 1454 1454 1453 1453 1453 1452 1452 1452 1452 1452 1452 1452 1452 1452 1452 1452 1452 1452 1453 1453 1453 1454 1454 1455
1444 1444 1445 1446 1446 1447 1448 1448 1449 1449 1449 1449 1449 1449 1449 1449 1449 1450 1450 1450 1451 1451 1451 1451 1451 1451 1452 1452 1452 1452 1452 1452 1452 1452 1452 1452 1452 1452 1452 1452 1452 1452 1452 1452 1452 1452 1452 1451 1451 1451 1451 1451 1451 1452 1452 1453 1453 1453 1453 1453 1453 1453 1452 1452 1451 1451 1451 1451 1450 1450 1450 1450 1450 1450 1450 1450 1450 1450 1450 1451 1451 1451 1451 1451 1452 1452
1442 1443 1443 1444 1445 1445 1446 1446 1447 1447 1447 1447 1447 1447 1447 1447 1447 1448 1448 1449 1449 1449 1449 1450 1450 1450 1450 1451 1451 1451 1451 1451 1451 1451 1451 1451 1451 1451 1451 1451 1451 1451 1451 1451 1451 1450 1450 1450 1450 1450 1450 1450 1451 1451 1451 1452 1452 1452 1452 1452 1451 1451 1451 1450 1450 1449 1449 1449 1448 1448 1448 1448 1448 1448 1448 1448 1448 1448 1448 1448 1448 1449 1449 1449 1449 1450
1440 1441 1442 1442 1443 1443 1444 1445 1445 1446 1446 1446 1445 1445 1445 1445 1446 1446 1446 1447 1447 1447 1448 1448 1448 1448 1449 1449 1449 1450 1450 1450 1450 1450 1450 1450 1450 1450 1450 1450 1450 1450 1449 1449 1449 1449 1449 1448 1448 1448 1449 1449 1449 1450 1450 1451 1451 1451 1451 1450 1450 1449 1449 1448 1448 1447 1447 1447 1446 1446 1446 1446 1446 1446 1446 1446 1446 1446 1446 1446 1446 1446 1446 1447 1447 1447
1438 1438 1439 1440 1441 1441 1442 1443 1443 1444 1444 1444 1444 1443 1443 1443 1443 1444 1445 1445 1446 1446 1446 1446 1446 1446 1447 1447 1447 1448 1448 1448 1448 1448 1448 1448 1448 1449 1449 1449 1449 1448 1448 1448 1447 1447 1447 1447 1447 1447 1447 1447 1448 1448 1449 1449 1449 1449 1449 1448 1448 1447 1447 1446 1446 1446 1445 1445 1444 1444 1444 1444 1444 1443 1443 1443 1444 1444 1444 1444 1444 1444 1444 1444 1445 1445
1435 1436 1437 1438 1438 1439 1440 1441 1442 1442 1442 1442 1442 1441 1441 1441 1441 1442 1443 1443 1444 1444 1445 1444 1444 1444 1445 1445 1446 1446 1446 1447 1447 1447 1447 1447 1447 1447 1447 1447 1447 1447 1447 1446 1446 1446 1446 1446 1446 1446 1446 1446 1446 1446 1447 1447 1447 1447 1446 1446 1446 1445 1445 1445 1444 1444 1443 1443 1442 1442 1442 1441 1441 1441 1441 1441 1441 1441 1441 1441 1441 1442 1442 1442 1442 1442
1433 1434 1435 1436 1436 1437 1438 1439 1440 1441 1441 1441 1440 1440 1439 1439 1440 1440 1441 1441 1442 1443 1443 1443 1442 1442 1442 1442 1443 1444 1445 1445 1446 1446 1446 1446 1446 1446 1446 1446 1446 1446 1446 1445 1445 1445 1445 1445 1444 1444 1444 1444 1444 1444 1445 1445 1444 1444 1444 1444 1443 1443 1443 1442 1442 1441 1441 1441 1440 1440 1440 1439 1439 1439 1439 1439 1439 1439 1439 1439 1439 1439 1439 1440 1440 1440
1432 1432 1433 1434 1435 1436 1436 1437 1437 1438 1438 1438 1438 1438 1437 1438 1438 1438 1438 1439 1440 1441 1441 1441 1440 1440 1440 1440 1441 1442 1443 1444 1444 1444 1444 1444 1445 1445 1445 1445 1445 1445 1444 1444 1444 1444 1444 1443 1443 1443 1443 1443 1443 1443 1442 1442 1442 1442 1441 1441 1441 1441 1440 1440 1440 1440 1439 1439 1438 1438 1437 1437 1437 1436 1436 1436 1436 1436 1437 1437 1437 1437 1437 1437 1437 1437
1430 1431 1431 1432 1433 1433 1434 1435 1436 1436 1436 1436 1435 1435 1435 1436 1436 1436 1436 1437 1438 1439 1439 1439 1438 1438 1438 1438 1439 1441 1441 1442 1442 1442 1443 1443 1443 1443 1443 1443 1443 1443 1443 1443 1442 1442 1442 1442 1442 1441 1441 1441 1441 1441 1441 1441 1440 1440 1439 1439 1438 1438 1438 1438 1437 1437 1437 1436 1436 1436 1435 1435 1434 1434 1434 1434 1434 1434 1434 1434 1434 1434 1434 1435 1435 1434
1428 1429 1430 1430 1431 1432 1433 1433 1434 1434 1434 1433 1433 1432 1432 1433 1434 1434 1435 1435 1436 1436 1436 1436 1436 1436 1436 1437 1438 1438 1439 1440 1440 1441 1441 1441 1442 1442 1441 1441 1441 1441 1441 1441 1441 1441 1441 1441 1441 1441 1440 1440 1440 1440 1439 1439 1438 1438 1437 1437 1436 1436 1436 1435 1435 1435 1435 1434 1434 1434 1433 1432 1432 1432 1431 1431 1431 1431 1431 1431 1431 1432 1432 1432 1432 1432
1426 1427 1428 1428 1429 1431 1431 1432 1432 1432 1432 1431 1430 1430 1431 1431 1431 1432 1433 1433 1434 1434 1434 1434 1434 1434 1435 1435 1436 1437 1437 1438 1438 1439 1439 1440 1440 1440 1440 1440 1439 1439 1439 1439 1439 1439 1439 1439 1439 1439 1439 1439 1438 1438 1437 1437 1436 1436 1436 1435 1435 1434 1434 1433 1433 1433 1432 1432 1432 1431 1431 1430 1430 1429 1429 1429 1428 1428 1428 1429 1429 1429 1429 1429 1429 1429
1425 1426 1426 1427 1428 1429 1430 1430 1431 1430 1429 1428 1428 1428 1429 1429 1430 1431 1431 1431 1432 1431 1432 1432 1432 1432 1433 1434 1435 1435 1436 1436 1436 1437 1437 1438 1438 1438 1438 1438 1437 1437 1437 1437 1437 1437 1437 1437 1437 1437 1437 1436 1436 1436 1435 1435 1434 1434 1434 1433 1433 1432 1432 1432 1431 1431 1431 1430 1430 1429 1429 1428 1428 1427 1427 1426 1426 1426 1426 1426 1426 1426 1426 1426 1426 1426
1423 1424 1425 1426 1426 1427 1427 1427 1427 1426 1426 1425 1426 1426 1427 1427 1428 1429 1430 1430 1430 1430 1430 1430 1430 1431 1431 1432 1433 1434 1434 1434 1434 1435 1436 1436 1436 1437 1436 1436 1435 1435 1435 1436 1436 1436 1436 1436 1435 1435 1434 1434 1433 1433 1433 1432 1432 1432 1432 1432 1431 1431 1431 1430 1430 1429 1429 1428 1428 1427 1427 1426 1426 1425 1425 1424 1424 1423 1423 1423 1423 1423 1423 1424 1424 1424
1422 1423 1424 1424 1425 1425 1425 1425 1424 1423 1423 1424 1424 1425 1426 1426 1427 1427 1428 1428 1428 1428 1428 1428 1428 1428 1429 1430 1432 1432 1432 1432 1433 1433 1434 1434 1435 1435 1435 1434 1433 1433 1433 1434 1434 1434 1434 1433 1433 1432 1432 1431 1431 1431 1431 1431 1431 1430 1430 1430 1430 1430 1429 1429 1428 1428 1427 1426 1426 1426 1425 1424 1424 1423 1423 1422 1421 1421 1421 1421 1421 1421 1421 1421 1421 1421
1421 1421 1422 1422 1423 1423 1423 1423 1422 1422 1422 1423 1423 1424 1424 1425 1425 1426 1426 1426 1426 1426 1426 1426 1426 1426 1428 1429 1430 1431 1431 1431 1431 1431 1431 1432 1432 1433 1433 1432 1432 1431 1431 1431 1431 1431 1431 1431 1431 1430 1430 1430 1429 1429 1429 1429 1429 1429 1429 1429 1428 1428 1428 1427 1426 1426 1426 1425 1424 1424 1423 1423 1422 1421 1421 1420 1420 1419 1418 1418 1418 1418 1418 1418 1418 1418
1419 1420 1420 1421 1421 1421 1421 1421 1421 1421 1421 1422 1422 1423 1423 1424 1424 1424 1425 1425 1425 1424 1424 1424 1424 1425 1427 1428 1429 1429 1430 1430 1430 1429 1429 1429 1430 1431 1431 1431 1430 1430 1429 1429 1429 1429 1429 1429 1429 1429 1428 1428 1428 1428 1428 1428 1427 1427 1427 1427 1426 1426 1426 1425 1425 1424 1424 1423 1423 1422 1421 1421 1420 1420 1419 1418 1418 1417 1416 1416 1416 1415 1415 1415 1415 1415
1418 1418 1419 1419 1419 1420 1419 1420 1420 1420 1421 1421 1421 1422 1422 1422 1423 1423 1423 1423 1422 1422 1422 1423 1424 1425 1426 1427 1427 1428 1428 1428 1428 1427 1427 1427 1427 1428 1429 1429 1428 1428 1427 1427 1427 1427 1427 1427 1427 1427 1427 1427 1427 1427 1426 1426 1426 1426 1425 1425 1425 1424 1424 1424 1423 1423 1422 1421 1421 1420 1420 1419 1419 1418 1417 1416 1416 1415 1415 1414 1413 1413 1413 1413 1413 1413
1417 1417 1417 1418 1418 1418 1418 1418 1419 1419 1420 1420 1420 1421 1421 1421 1421 1421 1421 1421 1421 1421 1421 1422 1423 1424 1425 1425 1426 1426 1427 1427 1426 1426 1426 1425 1425 1426 1426 1426 1426 1426 1425 1425 1426 1426 1426 1426 1426 1426 1426 1426 1426 1426 1425 1425 1424 1424 1424 1423 1423 1422 1422 1421 1421 1420 1420 1419 1418 1418 1417 1417 1416 1416 1415 1415 1414 1413 1413 1412 1411 1411 1411 1411 1410 1410
1416 1416 1416 1416 1417 1417 1417 1417 1418 1418 1419 1419 1419 1420 1420 1420 1420 1421 1420 1420 1420 1420 1421 1422 1423 1423 1424 1425 1425 1425 1426 1426 1426 1425 1425 1424 1423 1423 1425 1425 1424 1424 1423 1424 1424 1424 1425 1425 1425 1425 1425 1425 1424 1424 1424 1423 1423 1422 1422 1421 1421 1420 1420 1419 1419 1418 1417 1416 1416 1415 1415 1414 1414 1413 1413 1412 1412 1411 1411 1410 1410 1409 1409 1408 1408 1408
1415 1415 1415 1415 1416 1416 1416 1416 1416 1417 1417 1418 1418 1418 1418 1419 1419 1419 1419 1419 1419 1420 1420 1421 1422 1422 1423 1423 1423 1424 1425 1425 1425 1425 1424 1422 1421 1422 1423 1423 1423 1422 1422 1422 1422 1422 1423 1423 1423 1423 1423 1423 1422 1422 1422 1422 1421 1421 1420 1420 1419 1418 1418 1417 1416 1416 1416 1415 1414 1414 1413 1413 1412 1412 1411 1411 1410 1410 1409 1409 1408 1407 1407 1406 1406 1406
1414 1414 1414 1414 1414 1414 1414 1414 1415 1415 1416 1416 1416 1417 1417 1417 1417 1417 1418 1418 1418 1418 1419 1420 1420 1421 1421 1421 1422 1422 1423 1424 1424 1424 1423 1421 1421 1421 1421 1422 1421 1421 1421 1421 1421 1421 1421 1421 1421 1421 1421 1421 1421 1421 1421 1421 1420 1419 1418 1418 1417 1416 1416 1416 1415 1415 1414 1414 1413 1413 1412 1412 1411 1411 1411 1410 1409 1408 1408 1407 1406 1406 1405 1404 1404 1403
1412 1412 1412 1412 1412 1412 1412 1413 1413 1413 1414 1414 1414 1415 1415 1415 1416 1416 1416 1416 1417 1417 1418 1418 1419 1419 1420 1420 1420 1421 1421 1422 1422 1422 1422 1421 1420 1420 1420 1421 1420 1419 1419 1419 1420 1420 1420 1419 1419 1419 1419 1419 1419 1419 1419 1419 1418 1417 1416 1416 1415 1415 1414 1414 1414 1413 1413 1412 1412 1411 1411 1411 1410 1410 1409 1409 1408 1407 1406 1406 1405 1404 1403 1403 1402 1401
1409 1410 1410 1410 1410 1411 1411 1411 1411 1411 1411 1412 1412 1413 1413 1413 1414 1414 1415 1415 1416 1416 1416 1417 1417 1417 1418 1418 1419 1419 1420 1421 1421 1421 1421 1420 1419 1418 1419 1419 1419 1418 1417 1417 1418 1418 1418 1417 1417 1417 1417 1417 1418 1418 1418 1417 1416 1416 1415 1414 1414 1413 1413 1413 1412 1412 1411 1411 1410 1410 1410 1409 1409 1408 1407 1407 1406 1406 1405 1404 1404 1403 1402 1401 1400 1400
1407 1407 1408 1408 1408 1409 1409 1409 1409 1410 1410 1410 1411 1411 1411 1411 1412 1413 1413 1414 1414 1415 1415 1416 1416 1416 1417 1417 1417 1418 1419 1419 1420 1420 1419 1419 1418 1417 1417 1417 1418 1417 1416 1416 1416 1416 1416 1416 1416 1415 1416 1416 1416 1416 1416 1416 1415 1414 1413 1413 1412 1412 1412 1411 1411 1411 1410 1410 1409 1409 1408 1408 1407 1406 1405 1405 1405 1404 1404 1403 1402 1401 1401 1400 1399 1398
1406 1406 1406 1406 1406 1407 1407 1407 1408 1408 1409 1409 1409 1410 1410 1410 1411 1411 1412 1412 1413 1414 1414 1415 1415 1415 1415 1416 1416 1417 1417 1418 1418 1418 1417 1417 1416 1416 1416 1416 1416 1416 1416 1415 1415 1415 1415 1414 1414 1414 1414 1414 1414 1414 1414 1413 1413 1412 1412 1411 1411 1411 1411 1410 1410 1409 1409 1408 1408 1407 1406 1406 1405 1404 1404 1403 1403 1403 1402 1402 1401 1400 1399 1398 1397 1396
1404 1404 1405 1405 1405 1406 1406 1406 1407 1407 1407 1408 1408 1409 1409 1409 1410 1411 1411 1411 1412 1412 1413 1413 1413 1414 1414 1414 1415 1416 1416 1416 1416 1416 1416 1416 1415 1415 1415 1416 1416 1415 1415 1414 1413 1412 1412 1412 1412 1412 1412 1412 1412 1412 1412 1411 1411 1411 1410 1410 1410 1410 1409 1409 1408 1408 1407 1406 1406 1405 1405 1404 1403 1403 1402 1402 1401 1401 1401 1400 1400 1399 1398 1397 1396 1395
1403 1404 1404 1404 1404 1405 1405 1405 1406 1406 1406 1407 1407 1408 1408 1408 1409 1410 1410 1410 1411 1411 1411 1411 1412 1412 1412 1413 1413 1414 1415 1415 1415 1415 1414 1414 1413 1413 1414 1414 1414 1414 1413 1412 1411 1410 1409 1410 1410 1411 1411 1410 1410 1410 1410 1409 1409 1409 1409 1408 1408 1408 1408 1407 1406 1406 1405 1405 1404 1403 1402 1402 1401 1401 1401 1400 1400 1400 1399 1399 1398 1397 1396 1395 1394 1393
1403 1403 1403 1404 1404 1404 1404 1405 1405 1405 1405 1406 1406 1406 1407 1407 1408 1408 1408 1409 1409 1409 1410 1410 1410 1411 1411 1411 1412 1412 1413 1413 1413 1412 1412 1412 1412 1411 1412 1412 1412 1412 1412 1412 1411 1409 1407 1407 1407 1409 1409 1408 1408 1408 1407 1407 1407 1407 1406 1406 1406 1406 1406 1405 1404 1404 1403 1402 1402 1401 1401 1400 1400 1399 1399 1399 1398 1398 1398 1397 1397 1396 1395 1394 1393 1392
1402 1403 1403 1403 1403 1404 1404 1404 1404 1404 1404 1405 1405 1405 1406 1406 1406 1406 1407 1407 1408 1408 1408 1409 1409 1409 1410 1410 1410 1410 1411 1411 1411 1411 1411 1411 1410 1410 1410 1410 1410 1410 1411 1411 1411 1409 1407 1405 1405 1406 1406 1406 1406 1406 1406 1406 1406 1405 1404 1404 1403 1403 1403 1403 1402 1401 1401 1401 1400 1399 1399 1398 1398 1397 1397 1397 1396 1396 1396 1396 1396 1395 1394 1392 1391 1390
1402 1402 1402 1403 1403 1403 1403 1403 1403 1403 1403 1404 1404 1405 1405 1406 1406 1406 1406 1406 1407 1407 1407 1407 1407 1408 1408 1408 1408 1408 1409 1409 1410 1410 1410 1409 1409 1408 1409 1409 1409 1409 1409 1409 1409 1409 1407 1405 1404 1403 1403 1404 1404 1404 1404 1404 1404 1403 1403 1402 1402 1401 1401 1400 1400 1399 1399 1398 1398 1397 1397 1396 1396 1396 1395 1395 1394 1394 1394 1394 1394 1393 1392 1391 1390 1388
1401 1402 1402 1402 1402 1402 1402 1402 1402 1402 1402 1403 1403 1404 1405 1405 1405 1406 1406 1406 1406 1406 1406 1406 1406 1406 1406 1407 1407 1407 1407 1408 1408 1409 1408 1408 1408 1407 1407 1407 1407 1407 1407 1407 1407 1406 1406 1405 1403 1402 1401 1401 1401 1402 1402 1402 1402 1402 1402 1401 1401 1400 1399 1399 1398 1397 1397 1396 1396 1396 1395 1395 1394 1394 1393 1392 1392 1392 1391 1391 1391 1391 1391 1390 1389 1387
1401 1401 1401 1401 1401 1401 1401 1401 1401 1401 1402 1402 1403 1404 1404 1405 1405 1405 1405 1405 1405 1405 1405 1405 1406 1406 1406 1406 1405 1405 1406 1406 1407 1408 1407 1407 1406 1406 1406 1405 1406 1406 1405 1405 1405 1404 1403 1402 1402 1401 1400 1399 1398 1398 1399 1400 1400 1400 1400 1400 1399 1398 1398 1397 1397 1396 1395 1395 1394 1394 1393 1393 1392 1391 1391 1390 1390 1390 1389 1389 1389 1389 1389 1388 1388 1387
1401 1401 1401 1401 1401 1401 1401 1401 1401 1401 1401 1401 1402 1403 1403 1403 1403 1403 1403 1404 1404 1404 1404 1404 1404 1404 1404 1404 1404 1404 1404 1405 1406 1406 1406 1406 1405 1405 1404 1404 1404 1404 1404 1403 1403 1402 1401 1401 1400 1400 1399 1398 1396 1396 1396 1398 1398 1398 1397 1397 1397 1397 1396 1396 1396 1395 1394 1393 1392 1391 1391 1391 1390 1390 1389 1389 1388 1388 1387 1387 1386 1386 1386 1386 1386 1385
1400 1400 1400 1400 1400 1400 1400 1400 1400 1400 1400 1401 1401 1401 1401 1402 1402 1402 1402 1402 1402 1402 1402 1403 1403 1403 1403 1403 1402 1402 1402 1403 1403 1404 1404 1404 1404 1403 1403 1402 1402 1402 1402 1402 1401 1401 1400 1399 1398 1397 1397 1396 1395 1394 1394 1395 1395 1395 1395 1395 1395 1395 1394 1394 1394 1393 1392 1391 1391 1390 1390 1389 1388 1388 1387 1387 1386 1386 1385 1385 1384 1384 1384 1384 1383 1383
1399 1399 1399 1399 1399 1399 1399 1399 1399 1399 1400 1400 1400 1400 1400 1400 1400 1400 1400 1401 1401 1401 1401 1401 1401 1401 1401 1401 1401 1401 1401 1401 1401 1401 1402 1402 1401 1401 1401 1401 1401 1401 1401 1400 1400 1399 1398 1397 1396 1396 1395 1394 1394 1394 1394 1393 1393 1392 1392 1392 1392 1392 1392 1392 1392 1391 1391 1390 1389 1388 1388 1388 1387 1386 1386 1385 1384 1383 1382 1382 1382 1382 1382 1381 1381 1381
1398 1399 1398 1398 1398 1398 1398 1398 1398 1399 1399 1399 1399 1398 1399 1399 1399 1399 1399 1399 1399 1399 1399 1399 1400 1400 1400 1400 1400 1400 1400 1400 1400 1400 1400 1400 1400 1400 1399 1399 1399 1399 1399 1399 1398 1398 1397 1396 1396 1395 1394 1393 1393 1392 1393 1392 1392 1391 1391 1390 1390 1390 1390 1390 1390 1390 1389 1388 1387 1387 1386 1386 1385 1385 1384 1383 1382 1382 1381 1380 1380 1380 1380 1379 1378 1378
1398 1398 1398 1397 1397 1397 1397 1397 1397 1397 1397 1397 1397 1397 1397 1397 1397 1397 1397 1397 1397 1397 1398 1398 1398 1398 1398 1398 1398 1398 1398 1398 1398 1398 1398 1398 1398 1398 1398 1397 1397 1397 1397 1397 1397 1397 1396 1396 1395 1394 1394 1393 1392 1391 1391 1391 1391 1391 1390 1389 1387 1387 1388 1388 1388 1387 1387 1386 1386 1385 1384 1384 1383 1383 1382 1382 1381 1381 1380 1379 1378 1378 1378 1378 1377 1376
1397 1397 1396 1397 1396 1396 1397 1396 1396 1396 1396 1396 1396 1396 1396 1396 1396 1396 1396 1396 1396 1396 1396 1396 1396 1396 1396 1396 1396 1396 1396 1396 1396 1396 1396 1396 1396 1396 1396 1396 1396 1396 1395 1395 1395 1395 1395 1394 1393 1393 1392 1392 1391 1391 1390 1390 1390 1390 1390 1388 1387 1386 1386 1386 1386 1386 1385 1385 1384 1384 1383 1382 1381 1381 1381 1380 1380 1379 1379 1378 1377 1377 1376 1376 1376 1376
1396 1396 1396 1396 1396 1396 1396 1396 1395 1395 1395 1395 1395 1395 1394 1394 1394 1394 1394 1394 1394 1394 1394 1394 1394 1394 1394 1394 1395 1395 1395 1395 1395 1395 1395 1395 1395 1395 1395 1394 1394 1394 1394 1393 1393 1393 1393 1392 1392 1391 1391 1391 1390 1389 1388 1388 1388 1389 1389 1388 1387 1386 1385 1384 1385 1385 1384 1384 1383 1382 1382 1381 1380 1379 1379 1378 1377 1377 1377 1377 1376 1376 1375 1375 1375 1375
1395 1395 1395 1395 1395 1395 1395 1394 1394 1394 1394 1394 1393 1393 1393 1393 1393 1392 1392 1392 1392 1392 1392 1392 1392 1392 1392 1392 1392 1393 1393 1393 1393 1393 1393 1393 1393 1393 1393 1393 1393 1393 1393 1392 1391 1391 1391 1391 1391 1390 1389 1389 1389 1388 1387 1386 1386 1387 1387 1387 1386 1385 1383 1382 1382 1383 1383 1382 1381 1381 1380 1379 1378 1377 1376 1376 1376 1375 1375 1375 1375 1374 1374 1374 1373 1373
1395 1394 1394 1394 1394 1394 1394 1393 1393 1393 1393 1392 1392 1392 1392 1392 1392 1391 1391 1391 1391 1391 1391 1390 1390 1390 1390 1390 1390 1391 1391 1391 1392 1392 1392 1392 1392 1391 1391 1391 1391 1391 1391 1391 1390 1390 1389 1389 1389 1389 1389 1388 1387 1386 1386 1385 1385 1385 1385 1385 1385 1384 1383 1381 1381 1381 1381 1380 1380 1379 1379 1378 1377 1376 1375 1374 1373 1373 1373 1373 1372 1372 1372 1372 1372 1371
1394 1393 1393 1393 1393 1393 1392 1392 1392 1392 1392 1391 1391 1391 1391 1391 1391 1391 1390 1390 1390 1389 1389 1389 1389 1389 1389 1388 1388 1389 1389 1389 1390 1390 1390 1390 1390 1390 1390 1390 1390 1389 1389 1389 1389 1389 1388 1387 1387 1386 1387 1386 1386 1385 1384 1384 1383 1383 1383 1383 1383 1383 1382 1381 1380 1380 1379 1378 1377 1377 1377 1376 1376 1374 1373 1372 1371 1371 1371 1371 1371 1371 1370 1370 1370 1370
1393 1393 1392 1392 1392 1392 1391 1391 1391 1391 1391 1391 1390 1390 1390 1390 1390 1389 1389 1389 1388 1388 1388 1388 1388 1388 1387 1387 1387 1387 1387 1387 1387 1388 1388 1388 1388 1388 1388 1388 1388 1387 1387 1387 1387 1386 1386 1386 1385 1384 1384 1384 1383 1382 1382 1382 1382 1381 1381 1381 1381 1381 1380 1379 1379 1379 1378 1377 1376 1376 1376 1375 1375 1373 1372 1371 1370 1370 1370 1370 1370 1369 1369 1368 1368 1368
1392 1392 1391 1391 1391 1391 1391 1391 1390 1390 1390 1390 1389 1389 1389 1389 1389 1388 1388 1388 1387 1387 1387 1387 1387 1386 1386 1386 1386 1386 1386 1386 1385 1386 1386 1386 1386 1386 1386 1386 1386 1386 1386 1385 1385 1384 1384 1384 1383 1383 1382 1381 1381 1380 1380 1381 1381 1380 1380 1380 1379 1379 1378 1377 1377 1377 1377 1376 1376 1375 1375 1374 1373 1372 1371 1370 1369 1368 1368 1368 1368 1368 1368 1367 1367 1367
1391 1391 1391 1391 1390 1390 1390 1390 1389 1389 1389 1389 1388 1388 1388 1388 1388 1387 1387 1387 1386 1386 1386 1386 1386 1386 1385 1385 1385 1385 1385 1384 1384 1384 1384 1384 1384 1384 1384 1384 1384 1384 1383 1383 1383 1382 1382 1381 1381 1381 1381 1380 1379 1378 1378 1379 1379 1379 1379 1378 1378 1377 1376 1376 1376 1376 1376 1375 1375 1374 1374 1373 1372 1371 1370 1369 1367 1366 1366 1366 1366 1366 1367 1366 1366 1366
1390 1390 1390 1389 1389 1389 1389 1389 1388 1388 1388 1387 1387 1387 1387 1387 1386 1386 1386 1386 1386 1386 1386 1385 1385 1385 1384 1384 1384 1384 1384 1383 1383 1383 1383 1382 1382 1382 1382 1382 1381 1381 1381 1381 1380 1380 1380 1379 1379 1379 1379 1379 1378 1377 1377 1377 1377 1378 1377 1377 1376 1376 1375 1375 1374 1375 1375 1374 1373 1373 1372 1372 1371 1370 1369 1367 1366 1365 1365 1365 1365 1365 1365 1365 1365 1364
1390 1389 1389 1388 1388 1388 1388 1387 1387 1387 1387 1386 1386 1386 1386 1386 1385 1385 1385 1385 1385 1384 1384 1384 1384 1384 1383 1383 1383 1383 1383 1382 1382 1381 1381 1381 1381 1381 1381 1380 1380 1379 1379 1378 1378 1377 1377 1376 1377 1377 1378 1378 1378 1377 1376 1376 1376 1376 1376 1376 1376 1376 1375 1374 1374 1374 1374 1373 1372 1372 1371 1371 1370 1370 1369 1367 1365 1363 1363 1362 1362 1362 1363 1363 1363 1363
1389 1388 1388 1388 1387 1387 1387 1386 1386 1386 1386 1385 1385 1385 1385 1384 1384 1384 1384 1384 1384 1383 1383 1383 1383 1383 1382 1382 1382 1382 1382 1381 1381 1381 1380 1380 1380 1380 1379 1379 1378 1378 1377 1376 1376 1375 1375 1374 1374 1374 1375 1376 1377 1377 1376 1376 1375 1375 1375 1375 1375 1375 1375 1374 1373 1373 1373 1372 1371 1370 1370 1369 1368 1367 1367 1366 1364 1363 1361 1361 1360 1360 1361 1361 1361 1361